STARLINK-36318, 68048

Orbit data source: Space-Track

STARLINK-36318, 68048 is a payload satellite owned by SpaceX/Seattle (US) in LEO that was launched on Mon, 02 Mar 2026 UTC via an FALCON 9 launch vehicle from the Air Force Eastern Test Range (AFETR). Payload-class satellites include a variety of spacecraft equipped with specific instruments for various scientific and technological missions. These include communications satellites like Starlink; space stations such as the ISS; scientific satellites like the Hubble; Earth observation satellites from companies like Planet Labs, Umbra, and HawkEye 360; GPS; miniature CubeSats for education and research; and military/defense satellites.

Loading next visibility...
Identifier
68048, 2026-041J
Orbit
LEO
Country
Flag of USUS
Related business
Manufacturer
SpaceX/Seattle
Mission
Operational Commercial Communications
Bus & Motor
STARLINK V2MO, Unknown motor
Mass
575 kg wet, ~530 kg dry
Launch date (UTC)
2026-03-02 (4 months ago)
Launch vehicle
FALCON 9
Launch site
Air Force Eastern Test Range (AFETR)
Object type
Payload
Rocket body
Debris
Shape & HBR
Box + 2 Pan, 17.7 m
Radar Cross Section
36.964 m², Large (>1 m²)

Expand to show TLE details & history
Last TLE update: 13 hours ago

TLE from 13 hours ago
0 STARLINK-36318
1 68048U 26041J   26171.32877256  .00016454  00000-0  49710-3 0  9990
2 68048  53.1596 290.9405 0000876  76.4466 283.6635 15.34396849 17137
Epoch: 2026-06-20T07:53Z
TLE epoch observation values (Epoch: 2026-06-20T07:53:25.949Z)
Latitude
0.00006°
Longitude
-95.96254°
Altitude
463.472 km
Speed
7.636 km/s
True Right ascension
19h 23m 45s
True Declination
0° 00' 00"
Sunlit
Object was in full shadow at epoch
Visualization orbit readout
Latitude
Unknown
Longitude
Unknown
Altitude
Unknown
Speed
Unknown
Apparent Right ascension
Unknown
Apparent Declination
Unknown
Sunlit
N/A
Visualization observer readout
Local Sidereal Time
07:19:49
Azimuth
Unknown
Elevation
Unknown
Doppler factor
Unknown
Orbital elements
Apogee altitude
463.569 km
Perigee altitude
462.37 km
Semi-major axis
6,841.107 km
Eccentricity
0.00009
Inclination
53.1596°
RAAN
290.9405°
Arg. of periapsis
76.4466°
True anomaly
283.65375°
Mean anomaly
283.6635°
Eccentric anomaly
283.65862°
Mean motion
3.83578 °/min
Orbital period
93.85 mins
BSTAR
0.0004971
Loading maneuver chart data...
Computing Atmospheric mass density...
Loading historical data...
Loading historical data...
Loading historical data...
Loading historical data...
Loading historical data...
Loading historical data...
Loading historical data...

Documentation

Showing up to 5 results
|